User: anonymous   Login
Location: Newark
(27.9675°N, 86.8869°E)
Time: 01:35:46
(UTC+00:00)
Language:

deb Explorer IX - Orbit

View from above orbital plane
View from above orbital plane
View from above satellite
View from above satellite

Ground track
Ground track

The orbit data is extracted from the following two-line orbital elements,

1    85U 61004C   19288.82590013 -.00000067 +00000-0 +59051-5 0  9999
2    85 038.7718 193.1871 0390507 303.0787 053.3033 14.19881180896169
Epoch (UTC): 15 October 2019 19:49:17
Eccentricity: 0.0390507
inclination: 38.7718°
perigee height: 544 km
apogee height: 1107 km
right ascension of ascending node: 193.1871°
argument of perigee: 303.0787°
revolutions per day: 14.19881180
mean anomaly at epoch: 53.3033°
orbit number at epoch: 89616

The dashed part of the orbit path shows where the satellite is in the earth's shadow,  

DLR